Regional Weather Roundup
Issued by NWS

Home | Current Version | Previous Version | Graphics & Text | Print | Product List | Glossary On
Versions: 1 2 3 4 5 6 7 8 9 10 11 12 13 14 15 16 17 18 19 20 21 22 23 24 25 26 27 28 29 30 31 32 33 34 35 36 37 38 39 40 41 42 43 44 45 46 47 48 49 50
000
ASUS43 KMPX 221010
RWRMN
WEATHER ROUNDUP FOR MINNESOTA
NATIONAL WEATHER SERVICE TWIN CITIES/CHANHASSEN MN
500 AM CDT SAT APR 22 2017


NOTE: "FAIR" INDICATES FEW OR NO CLOUDS BELOW 12,000 FEET WITH NO
SIGNIFICANT WEATHER AND/OR OBSTRUCTIONS TO VISIBILITY. N/A MEANS
CURRENT SKY AND/OR WEATHER CONDITIONS ARE NOT AVAILABLE.

MNZ060>063-068>070-221100-
   Twin Cities Metro

CITY           SKY/WX    TMP DP  RH WIND       PRES   REMARKS
TWIN CITIES    CLEAR     43  37  79 CALM      30.22S
ST PAUL        CLEAR     39  36  89 CALM      30.23S
CRYSTAL        CLEAR     37  32  82 CALM      30.21R
BLAINE         CLEAR     37  37 100 CALM      30.22R
LAKEVILLE      CLEAR     36  36 100 CALM      30.23R
EDEN PRAIRIE   CLEAR     41  36  82 CALM      30.21R
SOUTH ST PAUL  CLEAR     39  32  75 CALM      30.22S
LAKE ELMO      FAIR      34  34 100 CALM      30.23S
$$
MNZ001>005-007-008-013>017-022>024-027-028-221100-
   Northwest Minnesota

CITY           SKY/WX    TMP DP  RH WIND       PRES   REMARKS
BEMIDJI        CLOUDY    35  31  87 SW3       30.19S
HALLOCK        CLOUDY    45  39  81 NW6       30.15F
ROSEAU         CLOUDY    46  37  71 SW8       30.14S
WARROAD        PTCLDY    45  37  76 SW9       30.14S HAZE
THIEF RVR FALL PTCLDY    45  36  70 SW10      30.18F
CROOKSTON      PTCLDY    39  36  87 SW8       30.19F
FOSSTON        CLOUDY    36  32  87 S7        30.20S
DETROIT LAKES  CLEAR     41  39  93 CALM      30.23R
MOORHEAD       CLEAR     43  37  81 SW5       30.23R
PARK RAPIDS    CLEAR     36  31  82 W3        30.21R
MAHNOMEN       FAIR      37  34  89 S8        30.21S
$$
MNZ006-009>011-018-025>026-221100-
   North Central Minnesota

CITY           SKY/WX    TMP DP  RH WIND       PRES   REMARKS
BAUDETTE       PTCLDY    38  30  73 SW3       30.14S
FLAG ISLAND    CLOUDY    46  34  61 W10       30.10S
INTL FALLS     CLOUDY    29  26  89 CALM      30.14F
WASKISH        CLOUDY    36  34  93 CALM      30.17S
BIG FORK       CLOUDY    30  28  93 CALM      30.18S
LONGVILLE      CLEAR     34  34 100 CALM      30.20S
GRAND RAPIDS   CLEAR     40  31  70 CALM      30.21S
CRANE LAKE     CLOUDY    27  27 100 CALM      30.17S
ORR            CLEAR     30  28  93 MISG      30.14S
COOK           CLEAR     28  28 100 CALM      30.17S
WALKER         FAIR      38  32  80 W3        30.20R
$$
MNZ012-019>021-037-221100-
   Northeast Minnesota

CITY           SKY/WX    TMP DP  RH WIND       PRES   REMARKS
DULUTH         CLEAR     39  30  70 W7        30.18R
ELY            CLEAR     30  28  93 CALM      30.16S
HIBBING        CLEAR     28  28 100 CALM      30.17S
EVELETH        CLEAR     31  30  96 CALM      30.18S
DULUTH HARBOR  CLEAR     45  34  65 SW10      30.19S
TWO HARBORS    CLEAR     39  32  75 CALM      30.15F
SILVER BAY     CLEAR     28  28 100 CALM      30.15F
GRAND MARAIS     N/A     32  30  92 CALM      30.16R
G MARAIS ARPRT CLEAR     36  27  69 SW3       30.15S
$$
MNZ029>031-032-039>041-046>048-054>057-064-221100-
   West Central Minnesota

CITY           SKY/WX    TMP DP  RH WIND       PRES   REMARKS
FERGUS FALLS   CLEAR     45  37  76 CALM      30.23S
WHEATON        CLEAR     43  37  81 W5        30.26R
MORRIS         CLEAR     41  37  87 NW3       30.23R
ALEXANDRIA     CLEAR     41  37  86 CALM      30.23S
ELBOW LAKE     FAIR      42  41  97 CALM      30.24S
WADENA         CLEAR     36  34  93 CALM      30.22S
GLENWOOD       CLEAR     45  37  76 NW3       30.23S
APPLETON       CLEAR     39  37  93 CALM      30.24S
BENSON         FOG       36  32  87 CALM      30.25S VSB 1/4
ORTONVILLE     CLEAR     41  37  87 CALM      30.24S
MADISON        CLEAR     39  39 100 W6        30.25R
WILLMAR        FAIR      39  37  93 CALM      30.25R
$$
MNZ033>034-036-042>043-049>051-058-059-221100-
   Central Minnesota

CITY           SKY/WX    TMP DP  RH WIND       PRES   REMARKS
ST CLOUD       CLEAR     34  34 100 CALM      30.22S
SAUK CENTRE    FAIR      36  35  94 CALM      30.23S
PAYNESVILLE    CLEAR     33  33 100 SW3       30.24R
AITKIN         CLEAR     34  30  86 CALM      30.19S
PINE RIVER     CLEAR     30  30 100 CALM      30.24R
BRAINERD       CLEAR     36  30  79 CALM      30.21S
STAPLES        CLEAR     36  34  93 CALM      30.21S
LONG PRAIRIE   FAIR      36  34  93 CALM      30.23S
LITTLE FALLS   CLEAR     34  32  93 CALM      30.22S
LITCHFIELD     CLEAR     41  37  87 CALM      30.23R
BUFFALO        CLEAR     38  34  85 CALM      30.23S
MAPLE LAKE     CLEAR     36  35  96 CALM      30.23S
HUTCHINSON     CLOUDY    38  37  99 CALM      30.24R
$$
MNZ037-044-045-052-053-221100-
   East Central Minnesota

CITY           SKY/WX    TMP DP  RH WIND       PRES   REMARKS
PRINCETON      CLEAR     34  30  86 CALM      30.23R
MORA           CLEAR     32  32 100 CALM      30.23S
CAMBRIDGE      CLEAR     36  28  75 CALM      30.21R
RUSH CITY      CLEAR     33  31  90 CALM      30.22S
MOOSE LAKE     CLEAR     32  30  93 CALM      30.19S
HINCKLEY       FAIR      32  32 100 CALM      30.22S
CLOQUET        CLEAR     36  28  75 SW5       30.19S
MCGREGOR       CLEAR     34  32  93 CALM      30.20S
$$
MNZ071>073-080-081-089-090-097-098-221100-
   Southwest Minnesota

CITY           SKY/WX    TMP DP  RH WIND       PRES   REMARKS
MONTEVIDEO     CLEAR     41  36  81 NW7       30.25R
GRANITE FALLS  CLEAR     35  34  94 W7        30.26R WCI  29
CANBY          CLEAR     40  36  86 CALM      30.26S
MARSHALL       CLEAR     37  35  92 W7        30.25R
REDWOOD FALLS  CLEAR     39  35  86 W5        30.23R
OLIVIA         CLEAR     39  34  81 CALM      30.23R
PIPESTONE      CLEAR     39  32  75 CALM      30.25R
WINDOM         CLOUDY    37  36  93 W3        30.24S
WORTHINGTON    CLOUDY    36  33  89 W3        30.25S
JACKSON        CLOUDY    36  36 100 CALM      30.24S
TRACY          CLEAR     43  38  83 W7        30.25S
SLAYTON        CLOUDY    37  34  90 W6        30.26S
$$
MNZ065>067-074>077-082>085-091>093-221100-
   South Central Minnesota

CITY           SKY/WX    TMP DP  RH WIND       PRES   REMARKS
MANKATO        CLOUDY    44  43  96 CALM      30.23S FOG
NEW ULM        CLEAR     37  34  87 CALM      30.23S
ST JAMES       CLOUDY    39  36  87 W5        30.25R
GLENCOE        CLEAR     38  37  97 CALM      30.22R
FARIBAULT      CLOUDY    36  34  93 CALM      30.23S
OWATONNA       CLOUDY    36  34  93 CALM      30.22S
WASECA         CLOUDY    36  32  87 CALM      30.23S
ALBERT LEA     CLOUDY    39  34  81 CALM      30.22S
$$
MNZ078>079-086>088-094>096-221100-
   Southeast Minnesota

CITY           SKY/WX    TMP DP  RH WIND       PRES   REMARKS
ROCHESTER      CLOUDY    45  26  47 E3        30.21R
RED WING       CLEAR     36  28  75 CALM      30.22S
STANTON        CLEAR     35  32  92 S3        30.22R
DODGE CENTER   CLOUDY    39  30  70 CALM      30.21S
WINONA         CLEAR     36  34  93 CALM      30.22S
AUSTIN         CLOUDY    37  34  87 CALM      30.21R
PRESTON        CLEAR     41  28  57 N5        30.21R
$$
ABBREVIATIONS USED IN REMARKS
   TC - TEMPERATURES IN CELSIUS
  WCI - WIND CHILL INDEX
   HX - HEAT INDEX
  VSB - VISIBILITY
$$




USA.gov is the U.S. government's official web portal to all federal, state and local government web resources and services.